Tracking 27112 objects as of 28-Mar-2023
HD Live streaming from Space Station
objects crossing your sky now

ARIANE 42P+3 R/B

Track ARIANE 42P+3 R/B now!
10-day predictions


NORAD ID: 23847
Int'l Code: 1996-022B
Perigee: 315.6 km
Apogee: 27,293.6 km
Inclination: 7.0 °
Period: 475.3 minutes
Semi major axis: 20175 km
RCS: 21.539 m2 (large)
Launch date: April 20, 1996
Source: France (FR)
Launch site: FRENCH GUIANA (FRGUI)

Note: This is a ROCKET BODY
Your satellite tracking list
Your tracking list is empty




NASA's NSSDC Master Catalog

Two Line Element Set (TLE):
1 23847U 96022B   23086.28754812  .00006245  00000-0  31840-2 0  9994
2 23847   6.9962 349.2171 6685809  72.9002 346.1692  3.02944507269481
Source of the keplerian elements: AFSPC